Effective Sunday, March 17, 2024, the National Weather Service National Data Buoy Center will discontinue its Dial-A-Buoy Interactive Voice Response system. For more information, see Service Change Notice 24-06 (PDF).

Station ITKA2 - 9451600 - Sitka, AK Image indicating link to RSS feed of recent meteorological observations for station ITKA2


Conditions at ITKA2 as of
(2:18 am AKST)
1118 GMT on 03/03/2024:
     

Click on the graph icon in the table below to see a time series plot of the last five days of that observation.

5-day plot - Atmospheric Pressure Atmospheric Pressure (PRES):29.86 in
5-day plot - Air Temperature Air Temperature (ATMP): 16.5 °F
5-day plot - Water Temperature Water Temperature (WTMP): 43.2 °F
NOS Water Level Observation Network Water Level
Previous observations
TIME
(AKST)
5-day plot - Wind Direction
WDIR
 
5-day plot - Wind Speed
WSPD
kts
5-day plot - Wind Gust
GST
kts
5-day plot - Wave Height
WVHT
ft
5-day plot - Dominant Wave Period
DPD
sec
5-day plot - Average Wave Period
APD
sec
5-day plot - Mean Wave Direction
MWD
 
5-day plot - Atmospheric Pressure
PRES
in
5-day plot - Pressure Tendency
PTDY
in
5-day plot - Air Temperature
ATMP
°F
5-day plot - Water Temperature
WTMP
°F
5-day plot - Dew Point
DEWP
°F
5-day plot - Salinity
SAL
psu
5-day plot - Visibility
VIS
nmi
5-day plot - Tide (above MLLW)
TIDE
ft
2024-03-03 02:12 am-------29.86- 16.7 43.2----
2024-03-03 02:06 am-------29.86- 16.7 43.2----
2024-03-03 02:00 am-------29.86+0.05- 43.2----
2024-03-03 01:54 am-------29.86-- 43.2----
2024-03-03 01:48 am-------29.86- 16.9 43.2----
2024-03-03 01:42 am-------29.86- 16.7 43.2----
2024-03-03 01:36 am-------29.85- 16.7 43.2----
2024-03-03 01:30 am-------29.85- 17.1 43.2----
2024-03-03 01:24 am-------29.85- 17.2 43.2----
2024-03-03 01:18 am-------29.85- 17.2 43.2----
2024-03-03 01:12 am-------29.85- 17.2 43.2----
2024-03-03 01:06 am-------29.85- 17.1 43.2----
2024-03-03 01:00 am-------29.85+0.06 17.2 43.2----
2024-03-03 12:54 am-------29.85- 17.4 43.2----
2024-03-03 12:48 am-------29.85- 17.4 43.2----
2024-03-03 12:42 am-------29.85- 17.4 43.2----
2024-03-03 12:36 am-------29.85- 17.4 43.0----
2024-03-03 12:30 am-------29.84- 17.4 43.0----
2024-03-03 12:24 am-------29.84- 17.6 43.0----
2024-03-03 12:18 am-------29.84- 17.6 43.0----
2024-03-03 12:12 am-------29.84- 17.6 43.0----
2024-03-03 12:06 am-------29.84- 17.6 43.0----
2024-03-03 12:00 am-------29.84+0.06 17.6 42.8----
2024-03-02 11:54 pm-------29.83- 17.4 42.8----
2024-03-02 11:48 pm-------29.83- 17.4 42.8----
2024-03-02 11:42 pm-------29.83- 17.4 42.8----
2024-03-02 11:36 pm-------29.83- 17.4 42.8----
2024-03-02 11:30 pm-------29.82- 17.6 42.8----
2024-03-02 11:24 pm-------29.82- 17.6 42.8----
2024-03-02 11:18 pm-------29.82- 17.6 42.8----
2024-03-02 11:12 pm-------29.82- 17.6 42.8----
2024-03-02 11:06 pm-------29.82- 17.6 42.8----
2024-03-02 11:00 pm-------29.81+0.05 17.6 42.8----
2024-03-02 10:54 pm-------29.81- 17.8 42.8----
2024-03-02 10:48 pm-------29.81- 17.8 42.8----
2024-03-02 10:42 pm-------29.80- 17.6 42.8----
2024-03-02 10:36 pm-------29.80- 17.8 42.8----
2024-03-02 10:30 pm-------29.80- 18.0 42.8----
2024-03-02 10:24 pm-------29.80- 17.8 42.8----
2024-03-02 10:18 pm-------29.80- 18.1 42.8----
2024-03-02 10:12 pm-------29.80- 18.1 42.8----
2024-03-02 10:06 pm-------29.80- 18.1 42.8----
2024-03-02 10:00 pm-------29.79+0.04 18.3 42.8----
2024-03-02 09:54 pm-------29.79- 18.3 42.8----
2024-03-02 09:48 pm-------29.79- 18.3 42.8----
2024-03-02 09:42 pm-------29.79- 18.3 42.8----
2024-03-02 09:36 pm-------29.78- 18.5 42.8----
2024-03-02 09:30 pm-------29.78- 18.3 42.8----
2024-03-02 09:24 pm-------29.78- 18.5 42.8----
2024-03-02 09:18 pm-------29.78- 18.5 42.8----
2024-03-02 09:12 pm-------29.78- 18.5 42.8----
2024-03-02 09:06 pm-------29.78- 18.5 42.8----
2024-03-02 09:00 pm-------29.78+0.04 18.7 42.8----
2024-03-02 08:54 pm-------29.77- 18.7 42.8----
2024-03-02 08:48 pm-------29.77- 18.9 42.8----
2024-03-02 08:42 pm-------29.77- 18.9 42.8----
2024-03-02 08:36 pm-------29.77- 19.0 42.8----
2024-03-02 08:30 pm-------29.77- 19.0 42.8----
2024-03-02 08:24 pm-------29.77- 19.2 42.8----
2024-03-02 08:18 pm-------29.77- 19.4 42.8----
2024-03-02 08:12 pm-------29.76- 19.4 42.8----
2024-03-02 08:06 pm-------29.76- 19.4 42.8----
2024-03-02 08:00 pm-------29.76+0.04 19.6 42.8----
2024-03-02 07:54 pm-------29.76- 19.8 42.8----
2024-03-02 07:48 pm-------29.76- 19.6 42.8----
2024-03-02 07:42 pm-------29.76- 19.6 42.8----
2024-03-02 07:36 pm-------29.76- 19.6 42.8----
2024-03-02 07:30 pm-------29.76- 19.8 42.8----
2024-03-02 07:24 pm-------29.75- 19.8 42.8----
2024-03-02 07:18 pm-------29.75- 19.9 42.8----
2024-03-02 07:12 pm-------29.75- 20.1 42.8----
2024-03-02 07:06 pm-------29.75- 20.1 42.8----
2024-03-02 07:00 pm-------29.75+0.04 20.1 42.8----
2024-03-02 06:54 pm-------29.75- 20.3 42.8----
2024-03-02 06:48 pm-------29.75- 20.1 42.8----
2024-03-02 06:42 pm-------29.75- 20.3 42.8----
2024-03-02 06:36 pm-------29.75- 20.5 42.8----
2024-03-02 06:30 pm-------29.75- 20.7 42.8----
2024-03-02 06:24 pm-------29.74- 20.7 42.8----
2024-03-02 06:18 pm-------29.74- 21.0 42.8----
2024-03-02 06:12 pm-------29.74- 21.0 42.8----
2024-03-02 06:06 pm-------29.74- 21.2 42.8----
2024-03-02 06:00 pm-------29.74+0.04 21.2 42.8----
2024-03-02 05:54 pm-------29.74- 21.4 42.8----
2024-03-02 05:48 pm-------29.73- 21.4 42.8----
2024-03-02 05:42 pm-------29.73- 21.6 42.8----
2024-03-02 05:36 pm-------29.73- 21.6 42.8----
2024-03-02 05:30 pm-------29.73- 21.7 42.8----
2024-03-02 05:24 pm-------29.73- 21.9 42.8----
2024-03-02 05:18 pm-------29.73- 22.1 42.8----
2024-03-02 05:12 pm-------29.73- 22.3 42.8----
2024-03-02 05:06 pm-------29.72- 22.6 42.8----
2024-03-02 05:00 pm-------29.72+0.03 22.8 42.8----
2024-03-02 04:54 pm-------29.72- 23.4 42.8----
2024-03-02 04:48 pm-------29.72- 24.1 42.8----
2024-03-02 04:42 pm-------29.72- 24.1 42.8----
2024-03-02 04:36 pm-------29.71- 24.6 42.8----
2024-03-02 04:30 pm-------29.72- 24.6 42.8----
2024-03-02 04:24 pm-------29.71- 24.4 42.8----
2024-03-02 04:18 pm-------29.71- 25.2 42.8----
2024-03-02 04:12 pm-------29.71- 25.9 42.8----
2024-03-02 04:06 pm-------29.71- 25.3 43.0----
2024-03-02 04:00 pm-------29.71+0.03 25.3 43.0----
2024-03-02 03:54 pm-------29.71- 26.6 43.0----
2024-03-02 03:48 pm-------29.71- 25.9 43.0----
2024-03-02 03:42 pm-------29.70- 25.7 43.0----
2024-03-02 03:36 pm-------29.70- 26.1 43.2----
2024-03-02 03:30 pm-------29.70- 26.6 43.2----
2024-03-02 03:24 pm-------29.70- 26.1 43.2----
2024-03-02 03:18 pm-------29.70- 26.8 43.2----
2024-03-02 03:12 pm-------29.70- 26.4 43.3----
2024-03-02 03:06 pm-------29.70- 27.1 43.3----
2024-03-02 03:00 pm-------29.70+0.03 27.3 43.3----
2024-03-02 02:54 pm-------29.69- 27.9 43.3----
2024-03-02 02:48 pm-------29.69-- 43.3----
2024-03-02 02:42 pm-------29.70-- 43.3----
2024-03-02 02:36 pm-------29.69-- 43.3----
2024-03-02 02:30 pm-------29.70- 27.3 43.3----
2024-03-02 02:24 pm-------29.70- 27.1 43.3----
2024-03-02 02:18 pm-------29.70-- 43.3----
2024-03-02 02:12 pm-------29.70-- 43.3----
2024-03-02 02:00 pm-------29.69- 28.2 43.3----
2024-03-02 01:54 pm-------29.69- 27.5 43.3----
2024-03-02 01:48 pm-------29.69- 27.9 43.3----
2024-03-02 01:42 pm-------29.69- 28.2 43.3----
2024-03-02 01:36 pm-------29.69- 27.9 43.3----
2024-03-02 01:30 pm-------29.69-- 43.3----
2024-03-02 01:24 pm-------29.69-- 43.3----
2024-03-02 01:18 pm-------29.69-- 43.3----
2024-03-02 01:12 pm-------29.68-- 43.3----
2024-03-02 01:06 pm-------29.69-- 43.3----
2024-03-02 01:00 pm-------29.68+0.03 27.7 43.3----
2024-03-02 12:54 pm-------29.68- 28.0 43.3----
2024-03-02 12:48 pm-------29.68- 28.8 43.2----
2024-03-02 12:42 pm-------29.68- 28.6 43.2----
2024-03-02 12:36 pm-------29.67- 29.1 43.0----
2024-03-02 12:30 pm-------29.67- 28.0-----
2024-03-02 12:24 pm-------29.67- 28.6-----
2024-03-02 12:18 pm-------29.67- 28.2 42.8----
2024-03-02 12:12 pm-------29.67- 27.7 42.8----
2024-03-02 12:06 pm-------29.67- 27.9 42.8----
2024-03-02 12:00 pm-------29.67+0.03 28.4 42.8----
2024-03-02 11:54 am-------29.67- 27.9 42.8----
2024-03-02 11:48 am-------29.67-- 42.8----
2024-03-02 11:42 am-------29.67-- 42.6----
2024-03-02 11:36 am-------29.67-- 42.6----
2024-03-02 11:30 am-------29.67- 28.0 42.6----
2024-03-02 11:24 am-------29.67- 27.1 42.6----
2024-03-02 11:18 am-------29.67- 27.1 42.6----
2024-03-02 11:12 am-------29.66- 27.0 42.6----
2024-03-02 11:06 am-------29.66- 27.5 42.6----
2024-03-02 11:00 am--------- 26.4-----
2024-03-02 10:54 am--------- 26.2-----
2024-03-02 10:48 am-------29.66- 27.0 42.6----
2024-03-02 10:42 am-------29.66- 26.2 42.6----
2024-03-02 10:36 am-------29.65- 25.9 42.4----
2024-03-02 10:30 am-------29.65- 26.2 42.4----
2024-03-02 10:24 am-------29.65- 25.7 42.4----
2024-03-02 10:18 am-------29.65- 25.7 42.4----
2024-03-02 10:12 am-------29.65- 25.7 42.4----
2024-03-02 10:06 am-------29.65- 25.3 42.4----
2024-03-02 10:00 am-------29.65+0.03 25.5 42.4----
2024-03-02 09:54 am-------29.65- 25.3 42.4----
2024-03-02 09:48 am-------29.65- 25.0 42.4----
2024-03-02 09:42 am-------29.65- 24.4 42.4----
2024-03-02 09:36 am-------29.65- 24.4 42.4----
2024-03-02 09:30 am-------29.65- 24.8 42.6----
2024-03-02 09:24 am-------29.65- 24.6 42.6----
2024-03-02 09:18 am-------29.65- 24.4 42.6----
2024-03-02 09:12 am-------29.65- 24.4 42.6----
2024-03-02 09:06 am-------29.65- 24.4 42.6----
2024-03-02 09:00 am-------29.64+0.04 24.3 42.6----
2024-03-02 08:54 am-------29.64- 24.1 42.6----
2024-03-02 08:48 am-------29.64- 24.1 42.6----
2024-03-02 08:42 am-------29.64- 24.1 42.6----
2024-03-02 08:36 am-------29.64- 24.1 42.4----
2024-03-02 08:30 am-------29.64- 24.1 42.4----
2024-03-02 08:24 am-------29.64- 23.9 42.4----
2024-03-02 08:18 am-------29.64- 23.9 42.6----
2024-03-02 08:12 am-------29.64- 23.7 42.6----
2024-03-02 08:06 am-------29.64- 23.9 42.8----
2024-03-02 08:00 am-------29.64+0.04 23.9 42.6----
2024-03-02 07:54 am-------29.63- 23.7 42.6----
2024-03-02 07:48 am-------29.63- 23.5 42.6----
2024-03-02 07:42 am-------29.63- 23.4 42.6----
2024-03-02 07:36 am-------29.63- 23.0 42.6----
2024-03-02 07:30 am-------29.63- 22.6 42.6----
2024-03-02 07:24 am-------29.63- 22.6 42.6----
2024-03-02 07:18 am-------29.62- 22.6 42.6----
2024-03-02 07:12 am-------29.62- 22.6 42.6----
2024-03-02 07:06 am-------29.62- 22.6 42.6----
2024-03-02 07:00 am-------29.62+0.03 22.6 42.6----
2024-03-02 06:54 am-------29.62- 22.8 42.6----
2024-03-02 06:48 am-------29.62- 22.8 42.6----
2024-03-02 06:42 am-------29.62- 22.8 42.6----
2024-03-02 06:36 am-------29.62- 23.0 42.6----
2024-03-02 06:30 am-------29.62-- 42.6----
2024-03-02 06:24 am-------29.61-- 42.6----
2024-03-02 06:18 am-------29.61- 23.4 42.6----
2024-03-02 06:12 am-------29.61- 23.4 42.6----
2024-03-02 06:06 am-------29.61- 23.4 42.6----
2024-03-02 06:00 am-------29.61+0.02 23.4 42.6----
2024-03-02 05:54 am-------29.61- 23.4 42.6----
2024-03-02 05:48 am-------29.61- 23.5 42.6----
2024-03-02 05:42 am-------29.61- 23.7 42.8----
2024-03-02 05:36 am-------29.61- 23.5 42.6----
2024-03-02 05:30 am-------29.60- 23.7 42.8----
2024-03-02 05:24 am-------29.60- 23.7 42.8----
2024-03-02 05:18 am-------29.60- 23.7 42.8----
2024-03-02 05:12 am-------29.60- 23.9 42.8----
2024-03-02 05:06 am-------29.60- 23.9 42.6----
2024-03-02 05:00 am-------29.59+0.01 23.9 42.8----
2024-03-02 04:54 am-------29.59- 23.9 42.6----
2024-03-02 04:48 am-------29.59- 23.9 42.8----
2024-03-02 04:42 am-------29.59- 24.1 42.8----
2024-03-02 04:36 am-------29.59- 24.1 42.8----
2024-03-02 04:30 am-------29.59- 24.1 42.8----
2024-03-02 04:24 am-------29.59- 24.3 43.0----
2024-03-02 04:18 am-------29.59- 24.3 43.0----
2024-03-02 04:12 am-------29.59- 24.1 43.0----
2024-03-02 04:06 am-------29.59- 24.1 43.0----
2024-03-02 04:00 am-------29.59+0.00 24.3 43.0----
2024-03-02 03:54 am-------29.59- 24.6 43.0----
2024-03-02 03:48 am-------29.59-- 43.0----
2024-03-02 03:42 am-------29.59-- 43.2----
2024-03-02 03:36 am-------29.59-- 43.0----
2024-03-02 03:30 am-------29.59- 24.4 43.2----
2024-03-02 03:24 am-------29.59- 24.6 43.0----
2024-03-02 03:18 am-------29.59- 24.8 43.0----
2024-03-02 03:12 am-------29.59- 24.6 43.0----
2024-03-02 03:06 am-------29.58- 24.8 43.0----
2024-03-02 03:00 am-------29.58+0.01 24.4 43.0----
2024-03-02 02:54 am-------29.58- 24.4 43.0----